Date String (YYYY-MM-DD hh:mm:ss) UTC,Instrument flags,absolute air pressure of the measurement (hPa),sample flow rate (lpm),inlet stack bypass flow (lpm),air temperature of the measurement (°C),ambient temperature measured by the external sensor (°C),aerosol sample conditioner tube jacket temperature (°C),OPC LED temperature (°C),internal box temperature (°C),relative humidity of the measurement (%),span deviation,mass concentration of particles derived from Lorenz-Mie calculation of OPC scattering (μg/m³),mass concentration of particles derived from Lorenz-Mie calculation of OPC scattering (μg/m³),mass concentration of particles derived from Lorenz-Mie calculation of OPC scattering (μg/m³)
DateTimeUTC,F1_M11,P_M11,Q1_M11,Q2_M11,T1_M11,T2_M11,T3_M11,T4_M11,T5_M11,U1_M11,ZSPAN_M11,X0_M11,X2_M11,X1_M11
2024-02-02 01:00:00,SystemResetWarning,0822.6,4.99,000.00,025.7,025.2,000.0,033.7,027.5,09.4,0000.0,0011.96,0003.23,0002.31
2024-02-02 01:01:00,SystemResetWarning,0822.7,4.99,000.00,025.7,025.2,000.0,033.7,027.4,09.3,0000.0,0013.04,0003.37,0002.49
2024-02-02 01:02:00,SystemResetWarning,0822.7,5.00,000.00,025.5,023.2,000.0,033.8,026.5,09.4,0000.0,0013.87,0003.46,0002.64
2024-02-02 01:03:00,SystemResetWarning,0822.8,5.01,000.00,025.1,021.8,000.0,033.9,025.7,09.5,0000.0,0014.48,0003.51,0002.75
2024-02-02 01:04:00,SystemResetWarning,0822.8,5.01,000.00,024.8,021.9,000.0,033.8,025.6,09.6,0000.0,0014.98,0003.58,0002.83
2024-02-02 01:05:00,SystemResetWarning,0822.6,5.01,000.00,024.8,022.3,000.0,033.6,025.9,09.6,0000.0,0013.91,0003.66,0002.88
2024-02-02 01:06:00,SystemResetWarning,0822.6,4.99,000.00,024.8,022.7,000.0,033.5,026.1,09.6,0000.0,0014.55,0003.66,0002.87
2024-02-02 01:07:00,SystemResetWarning,0822.7,5.00,000.00,024.8,023.1,000.0,033.4,026.3,09.6,0000.0,0014.60,0003.62,0002.80
2024-02-02 01:08:00,SystemResetWarning,0822.6,5.01,000.00,024.8,023.4,000.0,033.4,026.4,09.6,0000.0,0014.62,0003.53,0002.65
2024-02-02 01:09:00,SystemResetWarning,0822.8,5.01,000.00,024.9,023.6,000.0,033.3,026.5,09.5,0000.0,0013.40,0003.38,0002.47
2024-02-02 01:10:00,SystemResetWarning,0822.8,5.00,000.00,024.9,023.8,000.0,033.3,026.6,09.4,0000.0,0012.63,0003.23,0002.26
2024-02-02 01:11:00,SystemResetWarning,0822.7,5.00,000.00,025.0,024.0,000.0,033.3,026.7,09.4,0000.0,0012.06,0003.13,0002.09
2024-02-02 01:12:00,SystemResetWarning,0822.7,5.00,000.00,025.0,024.2,000.0,033.3,026.7,09.4,0000.0,0010.98,0002.91,0001.93
2024-02-02 01:13:00,SystemResetWarning,0822.7,5.00,000.00,025.1,024.3,000.0,033.3,026.8,09.3,0000.0,0010.43,0002.73,0001.79
2024-02-02 01:14:00,SystemResetWarning,0822.7,4.99,000.00,025.1,024.4,000.0,033.3,026.9,09.3,0000.0,0009.96,0002.63,0001.66
2024-02-02 01:15:00,SystemResetWarning,0822.8,4.99,000.00,025.2,024.5,000.0,033.3,026.9,09.4,0000.0,0009.22,0002.54,0001.56
2024-02-02 01:16:00,SystemResetWarning,0822.8,5.01,000.00,025.2,024.6,000.0,033.3,027.0,09.4,0000.0,0009.23,0002.37,0001.50
2024-02-02 01:17:00,SystemResetWarning,0822.8,5.01,000.00,025.2,024.7,000.0,033.4,027.0,09.3,0000.0,0009.04,0002.27,0001.44
2024-02-02 01:18:00,SystemResetWarning,0822.8,4.99,000.00,025.3,024.8,000.0,033.4,027.1,09.2,0000.0,0008.33,0002.20,0001.38
2024-02-02 01:19:00,SystemResetWarning,0822.8,5.00,000.00,025.3,024.8,000.0,033.4,027.1,09.1,0000.0,0007.24,0002.13,0001.38
2024-02-02 01:20:00,SystemResetWarning,0822.8,5.01,000.00,025.4,024.9,000.0,033.4,027.2,09.1,0000.0,0007.54,0002.15,0001.40
2024-02-02 01:21:00,SystemResetWarning,0822.8,5.01,000.00,025.4,024.9,000.0,033.4,027.2,09.0,0000.0,0007.72,0002.21,0001.43
2024-02-02 01:22:00,SystemResetWarning,0822.9,4.99,000.00,025.4,025.0,000.0,033.5,027.3,09.0,0000.0,0007.75,0002.18,0001.43
2024-02-02 01:23:00,SystemResetWarning,0823.0,5.00,000.00,025.5,025.0,000.0,033.5,027.3,09.0,0000.0,0007.60,0002.14,0001.42
2024-02-02 01:24:00,SystemResetWarning,0823.2,5.00,000.00,025.5,025.1,000.0,033.5,027.3,08.9,0000.0,0007.20,0002.07,0001.42
2024-02-02 01:25:00,SystemResetWarning,0823.0,5.00,000.00,025.6,025.1,000.0,033.6,027.4,08.9,0000.0,0006.91,0002.06,0001.43
2024-02-02 01:26:00,SystemResetWarning,0823.0,5.00,000.00,025.6,025.1,000.0,033.6,027.4,09.0,0000.0,0006.75,0001.99,0001.42
2024-02-02 01:27:00,SystemResetWarning,0822.8,5.00,000.00,025.6,025.2,000.0,033.6,027.4,09.0,0000.0,0007.54,0001.98,0001.39
2024-02-02 01:28:00,SystemResetWarning,0822.9,4.98,000.00,025.7,025.2,000.0,033.7,027.5,09.0,0000.0,0006.47,0001.98,0001.40
2024-02-02 01:29:00,SystemResetWarning,0822.8,5.01,000.00,025.7,025.2,000.0,033.7,027.5,09.0,0000.0,0006.56,0001.97,0001.40
2024-02-02 01:30:00,SystemResetWarning,0822.8,5.01,000.00,025.7,025.2,000.0,033.7,027.5,09.0,0000.0,0007.68,0002.00,0001.41
2024-02-02 01:31:00,SystemResetWarning,0822.8,4.99,000.00,025.7,025.3,000.0,033.8,027.5,09.0,0000.0,0008.30,0002.03,0001.43
2024-02-02 01:32:00,SystemResetWarning,0822.9,4.99,000.00,025.8,025.3,000.0,033.8,027.6,09.0,0000.0,0007.84,0002.02,0001.45
2024-02-02 01:33:00,SystemResetWarning,0822.9,4.99,000.00,025.8,025.3,000.0,033.8,027.6,09.1,0000.0,0007.63,0002.03,0001.46
2024-02-02 01:34:00,SystemResetWarning,0822.8,5.00,000.00,025.8,025.3,000.0,033.9,027.6,09.1,0000.0,0008.09,0002.04,0001.47
2024-02-02 01:35:00,SystemResetWarning,0822.9,5.02,000.00,025.8,025.4,000.0,033.9,027.6,09.0,0000.0,0008.46,0002.02,0001.45
2024-02-02 01:36:00,SystemResetWarning,0822.9,4.98,000.00,025.9,025.4,000.0,033.9,027.7,09.1,0000.0,0008.56,0002.02,0001.42
2024-02-02 01:37:00,SystemResetWarning,0822.9,4.99,000.00,025.9,025.4,000.0,033.9,027.7,09.1,0000.0,0008.98,0002.03,0001.42
2024-02-02 01:38:00,SystemResetWarning,0822.9,5.02,000.00,025.9,025.4,000.0,034.0,027.7,09.1,0000.0,0008.87,0002.15,0001.45
2024-02-02 01:39:00,SystemResetWarning,0822.9,4.99,000.00,025.9,025.4,000.0,034.0,027.7,09.0,0000.0,0009.41,0002.21,0001.46
2024-02-02 01:40:00,SystemResetWarning,0822.9,4.99,000.00,026.0,025.5,000.0,034.0,027.7,09.0,0000.0,0009.40,0002.27,0001.49
2024-02-02 01:41:00,SystemResetWarning,0822.9,5.01,000.00,026.0,025.5,000.0,034.0,027.8,09.0,0000.0,0008.97,0002.29,0001.52
2024-02-02 01:42:00,SystemResetWarning,0822.9,5.00,000.00,026.0,025.5,000.0,034.1,027.8,09.0,0000.0,0009.49,0002.36,0001.55
2024-02-02 01:43:00,SystemResetWarning,0823.0,4.99,000.00,026.0,025.5,000.0,034.1,027.8,09.0,0000.0,0009.47,0002.39,0001.57
2024-02-02 01:44:00,SystemResetWarning,0823.0,5.00,000.00,026.0,025.5,000.0,034.1,027.8,09.2,0000.0,0009.48,0002.42,0001.60
2024-02-02 01:45:00,SystemResetWarning,0823.1,5.00,000.00,026.1,025.5,000.0,034.1,027.9,09.3,0000.0,0009.16,0002.49,0001.64
2024-02-02 01:46:00,SystemResetWarning,0822.9,4.99,000.00,026.1,025.5,000.0,034.2,027.9,09.1,0000.0,0009.28,0002.67,0001.73
2024-02-02 01:47:00,SystemResetWarning,0823.0,5.00,000.00,026.1,025.5,000.0,034.2,027.9,09.1,0000.0,0009.34,0002.81,0001.82
2024-02-02 01:48:00,SystemResetWarning,0822.9,4.99,000.00,026.0,024.4,000.0,034.3,027.3,09.1,0000.0,0009.78,0002.91,0001.91
2024-02-02 01:49:00,SystemResetWarning,0822.9,5.01,000.00,025.5,022.1,000.0,034.3,026.1,09.3,0000.0,0010.00,0002.87,0001.95
2024-02-02 01:50:00,SystemResetWarning,0823.0,5.01,000.00,025.1,021.7,000.0,034.3,025.6,09.5,0000.0,0009.42,0002.89,0002.01
2024-02-02 01:51:00,SystemResetWarning,0822.9,5.00,000.00,024.9,022.0,000.0,034.1,025.7,09.7,0000.0,0010.67,0003.01,0002.08
2024-02-02 01:52:00,SystemResetWarning,0822.9,5.00,000.00,024.9,022.4,000.0,033.9,026.1,09.7,0000.0,0011.35,0003.09,0002.14
2024-02-02 01:53:00,SystemResetWarning,0822.9,5.00,000.00,024.9,022.9,000.0,033.8,026.3,09.7,0000.0,0010.65,0003.12,0002.17
2024-02-02 01:54:00,SystemResetWarning,0823.1,4.99,000.00,025.0,023.2,000.0,033.7,026.5,09.7,0000.0,0010.65,0003.18,0002.22
2024-02-02 01:55:00,SystemResetWarning,0822.9,4.99,000.00,025.0,023.5,000.0,033.6,026.6,09.7,0000.0,0011.09,0003.24,0002.28
2024-02-02 01:56:00,SystemResetWarning,0822.9,5.01,000.00,025.0,023.8,000.0,033.6,026.6,09.7,0000.0,0011.58,0003.32,0002.38
2024-02-02 01:57:00,SystemResetWarning,0822.9,5.00,000.00,025.1,024.0,000.0,033.6,026.7,09.7,0000.0,0011.40,0003.36,0002.48
2024-02-02 01:58:00,SystemResetWarning,0823.0,5.01,000.00,025.1,024.1,000.0,033.5,026.8,09.7,0000.0,0012.10,0003.44,0002.59
2024-02-02 01:59:00,SystemResetWarning,0823.0,5.00,000.00,025.1,024.3,000.0,033.5,026.9,09.7,0000.0,0012.99,0003.53,0002.70
